SXM-9

Last updated on Wed Sep 09 2026 00:03:04 GMT+0000 (Coordinated Universal Time)

1 62259U 24234A 26251.46919777 .00000000 00000+0 00000+0 0 9993 2 62259 0.0128 146.4963 0004602 168.4264 116.3675 1.00268135 6408
UTC large
Height (km)
Speed (km/s)
/
Latitude / Longitude
Inclination (degrees)
Orbital Period (minutes)
Azimuth
Elevation
Range (km)
Doppler Factor

Next 0 passes for location: London (51.5072 / 0.1276)

No passes found over London.
SXM-9